This is the latest recevied weather packets stored in our database for station/object WD8INF-9. If no packets are shown the sender has not sent any weather packets the latest 10 day(s).
| Time | Temp. | Humidity | Pressure | Rain* | Wind** | Luminosity | Snow |
|---|---|---|---|---|---|---|---|
| 1778172011 | 18.89° C | - | 1013.7 hPa | 0 mm | - | - | - |
| 1778171710 | 17.78° C | - | 1013.3 hPa | 0 mm | - | - | - |
| 1778171410 | 18.89° C | - | 1013.7 hPa | 0 mm | - | - | - |
| 1778171110 | 17.78° C | - | 1013.7 hPa | 0 mm | - | - | - |
| 1778170810 | 18.33° C | - | 1013.5 hPa | 0 mm | - | - | - |
| 1778170509 | 18.33° C | - | 1013.5 hPa | 0 mm | - | - | - |
| 1778170209 | 18.33° C | - | 1013.7 hPa | 0 mm | - | - | - |
| 1778169909 | 18.33° C | - | 1013.9 hPa | 0 mm | - | - | - |
| 1778169609 | 20° C | - | 1013.6 hPa | 0 mm | - | - | - |
| 1778169308 | 17.78° C | - | 1013.9 hPa | 0 mm | - | - | - |
| 1778169008 | 18.33° C | - | 1013.5 hPa | 0 mm | - | - | - |
| 1778168577 | 17.22° C | - | 1013.9 hPa | 0 mm | - | - | - |
| 1778168277 | 18.33° C | - | 1013.5 hPa | 0 mm | - | - | - |
| 1778167976 | 17.78° C | - | 1013.7 hPa | 0 mm | - | - | - |
| 1778167676 | 18.89° C | - | 1013.5 hPa | 0 mm | - | - | - |
| 1778167376 | 18.33° C | - | 1013.7 hPa | 0 mm | - | - | - |
| 1778167076 | 17.22° C | - | 1013.5 hPa | 0 mm | - | - | - |
| 1778166775 | 18.89° C | - | 1013.4 hPa | 0 mm | - | - | - |
| 1778166475 | 17.78° C | - | 1013.5 hPa | 0 mm | - | - | - |
| 1778166174 | 17.78° C | - | 1013.6 hPa | 0 mm | - | - | - |
| 1778165874 | 18.33° C | - | 1013.9 hPa | 0 mm | - | - | - |
| 1778165574 | 17.78° C | - | 1013.5 hPa | 0 mm | - | - | - |
| 1778165271 | 18.33° C | - | 1013.8 hPa | 0 mm | - | - | - |
| 1778164971 | 18.89° C | - | 1013.5 hPa | 0 mm | - | - | - |
| 1778164671 | 18.33° C | - | 1013.9 hPa | 0 mm | - | - | - |
* Rain since midnight (hover to see other rain measurements)
** Current wind speed in m/s (hover to see current wind gust speed)